Location: Unspecified
(49.2000°N, 0.0000°E)
Time: 17:42:47
(UTC+00:00)

OTV 5 (USA 277) - Visible Passes

Search period start: 17 June 2019 00:00
Search period end: 27 June 2019 00:00
Orbit: 310 x 325 km, 54.5° (Epoch: 08 May)

Date Brightness Start Highest point End Pass type
(mag) Time Alt. Az. Time Alt. Az. Time Alt. Az.
17 Jun ? 01:26:04 10° W 01:28:38 33° NNW 01:31:12 10° NE visible
17 Jun ? 03:01:02 10° NW 03:03:28 26° N 03:05:53 10° ENE visible
18 Jun ? 00:08:19 48° W 00:08:55 70° NNW 00:11:41 10° ENE visible
18 Jun ? 01:41:08 10° WNW 01:43:34 26° N 01:46:00 10° NE visible
18 Jun ? 22:50:36 23° E 22:50:36 23° E 22:52:01 10° ENE visible
19 Jun ? 00:21:24 12° W 00:23:45 40° NNW 00:26:23 10° NE visible
19 Jun ? 01:56:08 10° WNW 01:58:32 25° N 02:00:56 10° ENE visible
19 Jun ? 23:03:08 36° SW 23:04:05 82° SSE 23:06:52 10° ENE visible
20 Jun ? 00:36:09 10° WNW 00:38:39 29° N 00:41:08 10° NE visible
20 Jun ? 02:11:00 10° NW 02:13:29 29° N 02:15:58 10° ENE visible
20 Jun ? 21:42:46 13° SSW 21:44:41 24° SE 21:47:01 10° E visible
20 Jun ? 23:16:09 10° W 23:18:52 51° NNW 23:21:35 10° NE visible
21 Jun ? 00:51:12 10° WNW 00:53:36 25° N 00:56:00 10° ENE visible
21 Jun ? 02:25:45 10° NW 02:28:24 39° NNE 02:31:02 10° E visible
21 Jun ? 21:56:34 10° SW 21:59:17 55° SSE 22:02:01 10° ENE visible
21 Jun ? 23:31:10 10° W 23:33:44 33° NNW 23:36:18 10° NE visible
22 Jun ? 01:06:07 10° NW 01:08:34 26° N 01:10:59 10° ENE visible
22 Jun ? 02:40:27 10° WNW 02:43:13 70° NNE 02:45:58 10° ESE visible
22 Jun ? 22:11:15 10° WSW 22:14:01 70° NNW 22:16:47 10° ENE visible
22 Jun ? 23:46:14 10° WNW 23:48:40 26° N 23:51:06 10° NE visible
23 Jun ? 01:20:56 10° NW 01:23:29 33° NNE 01:26:03 10° E visible
23 Jun ? 02:55:14 10° WNW 02:57:57 54° SSW 03:00:38 10° SE visible
23 Jun ? 20:51:56 10° SSW 20:54:31 36° SE 20:57:06 10° ENE visible
23 Jun ? 22:26:11 10° W 22:28:50 39° NNW 22:31:29 10° NE visible
24 Jun ? 00:01:14 10° WNW 00:03:38 25° N 00:06:01 10° ENE visible
24 Jun ? 01:35:38 10° NW 01:38:22 51° NNE 01:41:04 10° E visible
24 Jun ? 03:10:14 10° W 03:12:33 24° SW 03:14:51 10° SSE visible
24 Jun ? 21:06:25 10° WSW 21:09:10 83° SSE 21:11:57 10° ENE visible
24 Jun ? 22:41:15 10° WNW 22:43:45 29° N 22:46:14 10° NE visible
25 Jun ? 00:16:05 10° NW 00:18:35 29° N 00:21:04 10° ENE visible
25 Jun ? 01:50:22 10° WNW 01:53:09 81° SSW 01:55:54 10° ESE visible
25 Jun ? 21:21:15 10° W 21:23:58 51° NNW 21:26:41 10° NE visible
25 Jun ? 22:56:18 10° WNW 22:58:42 25° N 23:01:06 10° ENE visible
26 Jun ? 00:30:50 10° NW 00:33:29 40° NNE 00:36:08 10° E visible
26 Jun ? 02:05:14 10° WNW 02:07:48 35° SW 02:10:23 10° SSE visible
26 Jun ? 21:36:16 10° W 21:38:50 33° NNW 21:41:24 10° NE visible
26 Jun ? 23:11:13 10° NW 23:13:40 26° N 23:16:05 10° ENE visible
